Creek Data

    Home     View Charts     View Raw Data     Messages

ID Distance Battery Voltage Battery Current Internal Temp Internal Humidity External Temp Solar Input rssi snr Time Stamp Record
68329 15.0 3.72 6 95 50 79 5.1 -75 8 03/08/2026 05:00 PM 51194
68328 14.9 3.72 7 95 50 80 5.1 -75 7 03/08/2026 04:45 PM 51193
68327 14.9 3.72 6 95 49 79 5.1 -76 8 03/08/2026 04:30 PM 51192
68326 15.0 3.86 0 97 47 77 5.1 -75 8 03/08/2026 04:15 PM 51191
68325 15.0 3.72 7 97 46 78 5.1 -76 8 03/08/2026 04:00 PM 51190
68324 15.1 3.73 7 96 46 78 5.1 -76 8 03/08/2026 03:45 PM 51189
68323 15.1 3.72 7 94 46 75 5.1 -76 8 03/08/2026 03:30 PM 51188
68322 15.0 4.01 7 92 46 75 5.1 -75 8 03/08/2026 03:15 PM 51187
68321 15.1 3.72 7 91 46 74 5.1 -76 8 03/08/2026 03:00 PM 51186
68320 15.0 3.72 7 89 46 73 5.1 -75 8 03/08/2026 02:45 PM 51185
68319 15.0 3.72 7 89 46 72 5.1 -75 8 03/08/2026 02:30 PM 51184
68318 15.0 4.04 7 89 45 71 5.1 -75 8 03/08/2026 02:15 PM 51183
68317 15.0 3.71 0 88 45 71 5.1 -74 8 03/08/2026 02:00 PM 51182
68316 15.0 3.84 7 88 44 74 5.1 -75 8 03/08/2026 01:45 PM 51181
68315 15.0 3.71 7 87 44 73 5.1 -75 8 03/08/2026 01:30 PM 51180
68314 15.0 3.71 7 85 45 71 5.1 -75 8 03/08/2026 01:15 PM 51179
68313 15.0 3.71 7 82 46 72 5.1 -74 8 03/08/2026 01:00 PM 51178
68312 15.0 3.71 0 81 45 69 5.1 -74 8 03/08/2026 12:45 PM 51177
68311 15.1 3.71 6 81 45 69 5.1 -74 8 03/08/2026 12:30 PM 51176
68310 15.1 3.71 0 79 46 71 5.1 -74 7 03/08/2026 12:15 PM 51175
68309 15.1 3.71 5 77 46 71 5.1 -74 9 03/08/2026 12:00 PM 51174
68308 15.1 3.70 0 75 46 70 5.1 -73 8 03/08/2026 11:45 AM 51173
68307 15.1 3.71 5 74 46 69 5.1 -74 8 03/08/2026 11:30 AM 51172
68306 15.1 3.70 0 71 46 71 5.1 -74 8 03/08/2026 11:15 AM 51171
68305 15.1 3.70 5 70 46 66 5.1 -74 7 03/08/2026 11:00 AM 51170